Find Starlink 2735

NORAD ID: 48667 Int'l Des: 2021-044 Owner: SPXS Country: US Constellation: starlink operational
LEOCIRCULARSTARLINK_TYPE

現在のビュー

3D地球を読み込み中...

About Starlink 2735

Starlink 2735 (NORAD 48667) is a starlink constellation satellite (v1.0) launched May 26, 2021 by SPXS of US. It operates in LEO, CIRCULAR, STARLINK_TYPE orbit with a mass of 260.00 kg.

次回通過

Passes for default location (London). Set your location on the main map for personalized predictions.

高度履歴

Loading altitude history...

軌道要素

1 48667U 21044AF 26255.19858167 .00004536 00000-0 15785-3 0 9994
2 48667 53.1608 327.4511 0001323 79.8590 280.2560 15.31697664292370
Epoch: Sep 12, 2026 • Age: 7 hours

現在のステータス

高度 487.3 km
遠地点 / 近地点 N/A
速度 7.62 km/s
衛星直下点 -46.11°S, 23.93°E
打ち上げ日 May 26, 2021
運用期間 5.2 years
タイプ internet

技術仕様

分類 Payload
質量 260.00 kg
乾燥質量 248.00 kg
総質量 260.00 kg
長さ 0.20 m
直径 2.80 m
スパン 9.00 m
形状 Box + pan
製造者 SPXS
バスタイプ Starlink
フェーズステータス In Orbit
所有者/国 SPXS/US

Most Searched